Location: Treviso
(45.6669°N, 12.2430°E)
Time: 16:28:35
(UTC+02:00)

ISS - Pass Details

Date: 25 May 2018
Orbit: 402 x 406 km, 51.6° (Epoch: 19 June)

Event Time Altitude Azimuth Distance (km) Brightness Sun altitude
Rises 00:25:18 0° 292° (WNW) 2,322 0.5 -22.7°
Reaches altitude 10° 00:27:34 10° 304° (NW) 1,461 -0.5 -22.8°
Maximum altitude 00:30:28 28° 6° (N) 785 -1.8 -22.9°
Enters shadow 00:32:57 13° 65° (ENE) 1,312 -1.1 -23.0°
